Location: Ermatingen
(47.6706°N, 9.0857°E)
Time: 05:14:44
(UTC+00:00)

HJ-1C - Pass Details

Date: 18 September 2020
Orbit: 432 x 443 km, 97.1° (Epoch: 29 October)

Event Time Altitude Azimuth Distance (km) Brightness Sun altitude
Rises 18:24:18 0° 169° (S) 2,395 6.8 -10.0°
Reaches altitude 10° 18:26:18 10° 171° (S) 1,533 5.9 -10.4°
Maximum altitude 18:29:34 77° 258° (WSW) 452 3.5 -10.9°
Drops below altitude 10° 18:32:54 10° 345° (NNW) 1,551 6.5 -11.4°
Sets 18:34:56 0° 347° (NNW) 2,427 7.5 -11.8°
